Location: Oberkirch
(48.5323°N, 8.0787°E)
Time: 16:04:13
(UTC+00:00)

USA 59 Rocket - Pass Details

Date: 08 November 2025
Orbit: 370 x 1678 km, 63.3° (Epoch: 12 December)

Event Time Altitude Azimuth Distance (km) Brightness Sun altitude
Exits shadow 04:48:57 40° 302° (WNW) 610 -0.4 -16.1°
Maximum altitude 04:49:11 41° 316° (NW) 597 -0.4 -16.0°
Drops below altitude 10° 04:52:01 10° 29° (NNE) 1,389 2.1 -15.6°
Sets 04:54:01 0° 37° (NE) 2,234 3.4 -15.2°
